Погода в Ругозере

Россия / Республика Карелия     64°04′56″N   32°46′44″E
темп.,
°C
ветер,
м/с
пор.,
м/с
влажн.,
%
обл.,
%
осадки,
мм/ч
давл.,
гПа
погр.,
м
22 апреля, чт
чт2200:00+1юв1399100 0.6 1001187
03:00+1юз1199100 1.5 1000108
06:00+1юз2497100 0.5 1000271
09:00+1юз2596100 0.6 1000544
12:00+2юз3795100 0.1 1001466
15:00+3зюз4894100 0.5 1003745
18:00+4зюз4677100 0.1 1004913
21:00+3юз3685100 0.1 1006274
23 апреля, пт
пт2300:00+2ю249525 0.0 1007108
03:00+2юв249489 0.0 1008103
06:00+2в41095100 0.0 1007297
09:00+3в51390100 0.9 1006522
12:00+4вюв3992100 1.8 1005427
15:00+4ююв2495100 7.4 1006331
18:00+6ю1484100 0.0 1006554
21:00+4юв3793100 0.4 1007278
24 апреля, сб
сб2400:00+3ююв389256 0.2 1008238
03:00+1ююв269699 0.2 1009153
06:00+1юв2495100 0.0 101092
09:00+3в2490100 0.0 1010287
12:00+5в3379100 0.3 1009748
15:00+4ссв3596100 1.9 1008558
18:00+2с41097100 1.7 1006439
21:00+3св41298100 3.3 1003420
25 апреля, вс
вс2500:00+7вюв51391100 1.3 1002820
03:00+5юв3995100 1.5 1003470
06:00+5всв299693 0.0 1003414
09:00+7всв4885100 0.0 1004608
12:00+7всв3785100 0.0 1005712
15:00+8всв5878100 0.5 10061030
18:00+8св4975100 0.7 1006883
21:00+6св41083100 0.9 1007747
26 апреля, пн
пн2600:00+4ссв51190100 0.2 1007734
03:00+3ссв51296100 0.8 1007709
06:00+1ссв51396100 1.3 1007605
09:00+1ссв51396100 2.4 1008640
12:00+1ссв51195100 0.8 1009736
15:00+2ссв5986100 1.6 1009959
18:00+2ссв4988100 0.1 1009886
21:00+1ссв41091100 0.3 1010793